This is the latest recevied weather packets stored in our database for station/object WP3OF. If no packets are shown the sender has not sent any weather packets the latest 10 day(s).
| Time | Temp. | Humidity | Pressure | Rain* | Wind** | Luminosity | Snow |
|---|---|---|---|---|---|---|---|
| 1778171273 | 27.78° C | 75% | 1019.6 hPa | 0 mm | - | - | - |
| 1778170969 | 27.78° C | 76% | 1019.2 hPa | 0 mm | - | - | - |
| 1778170667 | 27.22° C | 77% | 1019.8 hPa | 0 mm | - | - | - |
| 1778170363 | 27.78° C | 76% | 1019.9 hPa | 0 mm | - | - | - |
| 1778170058 | 27.22° C | 77% | 1019.7 hPa | 0 mm | - | - | - |
| 1778169755 | 27.78° C | 77% | 1019.7 hPa | 0 mm | - | - | - |
| 1778169451 | 27.78° C | 76% | 1019.7 hPa | 0 mm | - | - | - |
| 1778169147 | 27.78° C | 77% | 1019.8 hPa | 0 mm | - | - | - |
| 1778168844 | 27.78° C | 74% | 1019.8 hPa | 0 mm | - | - | - |
| 1778168542 | 27.78° C | 79% | 1019.9 hPa | 0 mm | - | - | - |
| 1778168238 | 28.33° C | 75% | 1019.7 hPa | 0 mm | - | - | - |
| 1778167935 | 27.78° C | 75% | 1020 hPa | 0 mm | - | - | - |
| 1778167631 | 27.78° C | 74% | 1020 hPa | 0 mm | - | - | - |
| 1778167327 | 27.78° C | 73% | 1019.8 hPa | 0 mm | - | - | - |
| 1778167023 | 27.78° C | 70% | 1019.9 hPa | 0 mm | - | - | - |
| 1778166720 | 27.78° C | 70% | 1019.8 hPa | 0 mm | - | - | - |
| 1778166417 | 27.78° C | 71% | 1020 hPa | 0 mm | - | - | - |
| 1778166114 | 27.78° C | 72% | 1019.9 hPa | 0 mm | - | - | - |
| 1778165809 | 28.33° C | 72% | 1019.9 hPa | 0 mm | - | - | - |
| 1778165507 | 27.78° C | 73% | 1019.9 hPa | 0 mm | - | - | - |
| 1778165203 | 28.33° C | 73% | 1019.9 hPa | 0 mm | - | - | - |
| 1778164902 | 27.78° C | 75% | 1019.9 hPa | 0 mm | - | - | - |
| 1778164598 | 27.78° C | 74% | 1019.9 hPa | 0 mm | - | - | - |
| 1778164295 | 27.78° C | 73% | 1020 hPa | 0 mm | - | - | - |
| 1778163990 | 27.78° C | 74% | 1019.8 hPa | 0 mm | - | - | - |
* Rain latest hour (hover to see other rain measurements)
** Current wind speed in m/s (hover to see current wind gust speed)